Wind_Speed
32 31 31 29 27 25 22 21 22 22 21 22 22 22 21 20 21 22 20 19 19 19 18 18 18 17 17 17 17 16 15 14 13 12 12 12 12 12 12 13 15 17 18 19 20 21 21 21 22
32 33 33 32 30 27 25 24 23 22 21 21 22 23 22 22 22 20 20 20 19 19 19 19 19 19 18 18 18 16 15 14 13 12 12 12 12 12 12 12 14 17 18 19 20 21 21 21 21
30 33 35 35 32 28 27 26 24 22 21 20 22 23 23 24 23 23 22 19 19 19 19 20 20 20 19 19 18 17 15 13 13 12 12 12 12 12 12 13 13 15 17 19 20 21 21 22 22
29 31 34 36 33 29 29 28 26 24 22 21 21 22 23 24 25 25 23 21 20 19 19 20 21 20 20 18 18 18 16 14 13 13 12 12 12 12 12 13 15 15 16 17 19 21 22 24 25
32 30 31 31 31 30 31 30 29 27 25 23 22 21 23 24 25 26 25 23 21 20 20 21 21 20 19 18 17 18 17 15 14 13 13 13 12 12 13 14 15 17 19 20 21 22 23 25 26
36 33 31 26 26 30 34 34 32 29 28 27 25 23 23 25 26 26 25 23 21 20 20 21 21 20 19 18 18 19 19 17 15 14 13 13 12 11 12 13 14 16 18 19 21 24 26 28 29
38 37 34 27 26 29 32 35 34 31 31 31 29 26 25 26 27 26 25 23 21 19 19 19 19 19 19 19 19 20 20 18 17 15 14 14 13 11 11 12 13 14 15 17 19 21 23 25 27
37 39 35 29 26 27 31 35 35 34 33 34 32 29 27 28 27 26 25 23 21 19 19 18 18 19 20 20 21 21 21 20 19 17 16 16 15 14 14 15 16 18 19 20 22 24 24 25 26
37 38 34 28 27 28 32 36 37 36 36 36 33 31 29 29 29 28 26 24 22 20 19 19 18 18 19 20 22 22 22 22 21 20 19 18 18 17 18 19 21 23 25 27 28 29 29 29 29
36 36 29 28 29 30 35 39 40 38 37 37 35 33 32 31 30 29 27 25 23 22 21 20 20 20 19 20 22 24 24 24 23 22 21 20 20 20 21 23 25 28 30 32 34 35 35 35 34
36 35 30 30 30 32 35 39 40 39 37 37 38 37 36 33 31 29 27 26 26 25 24 23 23 23 22 22 23 24 25 25 25 25 24 22 22 23 24 26 28 30 32 33 34 34 34 34 35
37 35 33 32 33 34 35 37 38 37 36 37 38 39 37 35 33 30 28 27 28 27 26 26 26 25 25 25 23 23 25 26 27 27 26 24 24 25 26 28 30 31 31 31 30 29 28 29 30
36 36 37 36 36 36 35 36 36 34 33 36 37 38 38 37 35 32 29 28 27 27 27 28 28 28 28 27 24 23 23 24 26 27 26 25 25 27 28 29 30 30 30 28 26 26 26 27 28
34 36 37 38 39 39 38 36 36 31 34 35 36 35 37 38 37 34 31 27 26 27 28 30 30 31 30 28 26 23 21 22 25 26 26 27 27 28 29 30 30 30 29 27 26 27 28 30 32
33 36 37 38 40 41 43 42 37 34 36 37 35 34 35 37 38 37 34 29 26 27 29 30 31 32 31 29 27 23 21 22 24 25 26 26 27 28 29 29 29 30 29 28 28 29 32 34 36
34 36 37 38 41 43 47 46 40 40 40 39 38 35 34 35 38 40 37 32 29 28 29 30 31 31 31 30 27 24 23 24 25 26 26 26 27 28 29 29 31 31 30 29 30 32 34 37 39
35 37 38 39 42 46 50 51 47 44 44 42 41 39 36 35 38 41 40 36 33 31 30 30 31 31 31 29 27 25 26 27 27 26 26 27 27 28 30 31 32 31 31 31 32 35 37 39 41
38 40 41 42 45 48 51 52 51 49 48 45 43 42 39 38 39 42 41 39 36 33 31 31 30 31 30 29 27 27 28 29 28 27 27 28 29 30 31 32 32 32 32 33 35 37 39 40 42
42 43 44 45 46 49 51 52 52 51 50 48 46 44 41 40 41 42 41 40 38 35 33 32 32 31 30 29 28 29 30 30 29 28 28 29 30 31 32 31 31 31 32 34 37 39 40 41 42
44 46 47 47 48 49 51 53 53 53 51 49 48 47 44 42 42 43 41 40 39 37 35 34 34 33 31 31 30 30 30 30 30 30 30 30 31 32 32 32 32 33 35 37 39 41 42 43 42
47 49 49 51 51 52 52 53 52 52 52 50 49 48 46 45 45 45 42 40 39 39 37 35 36 35 33 32 31 31 30 30 31 31 32 32 33 34 35 35 36 37 39 41 42 43 44 44 43
52 52 54 55 56 55 55 56 51 51 52 51 49 48 48 47 47 46 43 40 39 39 38 37 37 36 34 32 32 32 31 31 32 33 34 35 36 37 38 39 40 41 42 43 45 45 45 45 45
55 56 57 58 60 60 57 59 54 50 50 49 49 49 49 48 48 47 43 40 40 40 39 38 38 36 33 32 32 32 31 31 33 34 36 37 39 40 42 42 43 44 45 46 46 46 46 46 47
56 56 58 59 61 64 61 62 58 51 47 47 47 49 49 48 47 46 43 41 40 40 39 38 38 36 34 32 32 32 32 32 33 35 37 39 41 42 43 44 45 46 46 47 47 46 47 48 50
53 53 55 58 62 66 64 65 61 55 48 46 46 48 49 48 47 46 43 41 40 40 39 38 37 36 34 33 33 32 32 33 34 37 38 40 42 43 44 45 46 46 47 46 46 47 48 51 54
45 47 49 53 57 60 62 66 62 58 54 48 46 47 49 48 47 46 43 41 40 40 39 38 38 36 35 34 33 33 33 34 36 38 39 41 42 44 45 45 46 47 46 47 48 49 51 54 58
38 39 40 44 48 52 57 59 59 57 55 50 46 46 47 47 47 45 43 42 41 40 38 38 38 37 36 35 34 34 34 35 37 38 40 42 43 43 44 45 46 46 46 48 50 52 55 58 61
32 35 37 40 44 47 49 47 46 45 46 47 46 45 47 47 45 44 42 42 41 40 39 39 38 38 36 35 34 34 35 36 37 39 40 41 42 42 43 44 45 46 48 50 53 55 58 61 64
30 33 36 40 42 45 45 37 31 32 35 39 42 45 46 45 43 42 41 40 40 40 39 39 38 37 36 34 34 35 36 37 38 39 40 40 40 42 43 44 45 48 50 53 55 58 60 63 66
28 31 34 37 37 38 38 26 23 24 27 33 40 44 44 43 41 40 40 39 40 40 39 38 38 36 35 35 35 36 36 37 37 38 39 40 41 42 42 44 47 50 53 56 58 60 62 66 69
Wind_Direction
244 244 245 245 245 245 246 248 249 251 247 243 243 246 251 256 262 266 269 268 265 264 264 268 272 276 280 286 290 292 293 293 293 296 297 296 295 296 295 288 278 273 272 273 274 275 275 275 275
247 242 242 242 243 243 244 247 250 254 256 250 245 243 243 247 253 259 263 265 265 266 266 268 271 275 280 285 287 286 287 288 291 293 294 293 292 291 294 293 285 277 273 272 272 272 273 274 275
252 245 241 241 241 242 244 246 250 255 256 256 253 248 243 244 246 250 256 260 262 264 267 269 272 275 279 282 282 279 280 282 286 289 290 291 290 288 287 288 289 287 282 277 273 272 272 274 275
253 249 245 241 240 241 243 244 247 250 252 254 257 255 247 245 245 247 249 250 253 257 263 268 271 274 276 278 276 274 274 277 280 284 289 290 289 289 286 284 283 283 283 283 281 279 277 276 275
251 251 249 246 241 241 244 244 245 247 248 250 253 255 252 249 249 250 249 247 247 250 255 262 266 269 272 273 270 268 269 272 274 278 285 287 288 289 288 285 284 281 280 280 281 282 282 281 279
250 250 249 248 243 241 244 244 243 245 247 248 248 249 252 252 253 254 251 246 243 243 246 254 261 266 269 269 266 264 264 266 268 271 277 280 283 289 291 290 290 289 288 287 286 285 283 282 280
249 250 250 246 241 242 245 247 245 244 245 246 246 246 249 251 253 254 251 246 242 241 245 250 258 263 265 265 263 260 259 262 265 266 268 270 274 279 285 288 291 294 295 296 295 294 292 290 288
251 251 249 246 243 243 247 248 247 244 243 245 245 244 246 250 253 253 250 247 244 243 245 250 256 263 265 264 261 258 256 258 262 264 265 266 267 271 276 282 286 291 295 297 298 298 298 297 296
252 251 251 247 242 239 243 247 246 243 242 243 243 243 243 247 250 251 248 245 244 244 246 249 255 264 269 266 262 257 255 256 260 262 264 264 266 270 276 282 287 292 294 295 296 296 297 296 295
256 256 252 244 239 236 238 244 246 244 242 242 242 240 240 242 245 247 246 243 241 243 245 248 254 262 268 268 262 257 255 256 258 260 262 264 266 272 277 284 289 293 297 297 297 297 296 295 295
258 257 250 242 238 235 236 243 248 248 246 244 242 240 238 238 240 243 245 243 240 241 244 247 252 258 264 267 265 260 256 257 258 259 260 264 269 274 279 284 289 294 298 300 300 299 297 295 293
261 258 252 244 239 237 239 244 250 252 250 248 246 244 243 241 240 241 242 242 241 241 243 246 249 254 259 264 265 262 258 257 259 260 261 264 270 275 280 285 289 295 299 301 302 301 299 296 295
263 260 255 248 243 241 242 246 251 254 255 252 250 246 244 243 243 243 241 241 242 244 244 245 246 250 255 260 262 261 259 257 259 261 263 265 270 275 281 286 290 295 298 300 299 300 300 299 299
264 262 258 253 248 246 246 248 251 254 258 256 253 249 245 243 243 243 242 241 241 242 243 244 245 248 253 257 259 259 258 257 259 263 265 267 271 275 280 285 290 293 294 294 293 294 297 298 299
269 265 260 256 252 249 249 247 251 253 256 257 257 253 247 244 244 244 243 241 241 242 243 245 247 249 253 256 259 259 256 256 258 262 265 268 270 274 278 284 288 290 290 287 288 292 296 297 297
272 270 264 258 254 250 249 248 247 249 251 254 256 254 249 245 244 245 244 242 242 242 242 243 247 250 253 256 259 258 255 255 257 260 264 266 269 274 278 282 286 287 285 284 286 291 294 295 296
274 272 268 260 255 252 250 248 245 247 249 250 252 252 249 245 244 246 245 244 243 244 244 244 246 249 252 255 258 255 254 254 256 258 262 265 269 273 276 280 284 284 284 284 287 291 293 295 296
273 271 269 264 258 254 253 251 248 247 248 250 250 251 249 246 244 245 245 244 244 246 248 247 246 248 250 252 253 252 253 254 254 256 260 263 267 272 277 281 284 284 284 286 289 292 294 295 296
274 274 273 271 265 259 256 254 251 249 248 249 249 250 249 247 245 246 246 243 243 245 248 249 248 249 250 250 249 251 253 254 253 255 259 263 268 273 279 283 285 284 286 289 291 294 295 295 296
275 274 273 272 268 264 258 254 252 250 249 248 248 248 247 246 246 246 246 243 241 241 245 250 250 249 250 249 250 252 255 254 253 255 259 264 270 275 280 284 285 286 289 292 294 296 296 296 295
274 273 271 269 266 265 263 257 252 250 248 247 246 246 245 244 244 244 244 243 241 240 242 246 249 249 249 249 251 254 256 254 254 256 260 266 272 276 280 283 285 288 292 294 295 295 295 295 294
273 271 269 267 266 263 262 261 251 247 246 246 245 245 245 243 242 242 242 242 241 240 241 244 247 248 248 249 251 253 255 254 255 258 262 267 272 276 280 283 286 290 293 294 294 295 295 295 295
274 271 269 267 265 264 262 261 256 248 245 245 245 244 244 243 242 241 239 239 239 240 241 243 246 248 249 249 251 253 255 256 257 260 263 268 272 277 280 283 287 291 293 295 295 296 296 296 296
273 270 267 265 263 262 260 259 257 251 244 243 244 243 242 241 241 239 236 235 237 239 240 242 245 248 250 251 252 253 255 258 260 262 265 269 273 277 281 284 288 292 294 295 296 297 297 298 298
272 268 266 263 260 260 259 257 255 252 246 241 240 241 240 239 238 236 233 232 234 237 238 241 244 247 249 250 252 254 257 259 262 264 268 271 275 278 282 286 290 292 295 296 297 298 299 299 298
271 266 264 264 264 262 259 256 252 250 247 240 236 236 236 235 234 232 228 227 229 232 236 239 243 246 248 250 252 255 258 261 263 266 270 273 276 280 284 288 291 293 295 297 298 299 299 299 298
275 270 267 264 264 263 261 257 252 248 246 240 233 230 231 231 230 226 223 223 225 229 234 238 243 246 248 250 253 256 259 262 265 268 272 275 278 282 286 289 292 295 296 298 299 299 299 299 299
279 272 265 262 262 263 263 260 256 248 245 238 229 224 224 225 223 220 218 219 223 228 233 237 242 246 248 251 254 257 261 264 267 271 274 277 282 286 289 292 294 296 297 298 298 299 299 300 302
277 272 268 266 265 265 267 264 255 247 238 230 221 217 218 218 217 214 213 217 222 227 233 238 242 246 249 252 255 258 262 266 270 274 277 282 285 288 291 293 295 297 298 299 299 300 302 303 304
283 279 272 268 269 269 268 257 244 239 226 214 209 209 211 211 209 208 209 215 221 227 233 238 242 246 249 252 255 260 264 269 273 277 281 285 287 290 292 295 297 298 299 300 302 303 304 305 306
Height
5807 5810 5812 5815 5818 5820 5821 5822 5822 5824 5826 5826 5827 5829 5831 5833 5835 5838 5839 5838 5839 5840 5841 5841 5841 5842 5842 5842 5842 5842 5842 5842 5842 5841 5841 5841 5841 5841 5841 5841 5841 5841 5842 5842 5843 5843 5842 5842 5842
5802 5805 5807 5810 5812 5815 5817 5818 5819 5821 5823 5824 5824 5825 5827 5829 5830 5832 5834 5835 5836 5837 5837 5838 5838 5839 5839 5839 5839 5839 5839 5839 5839 5839 5839 5838 5838 5838 5838 5838 5838 5838 5838 5839 5839 5839 5839 5839 5839
5797 5799 5802 5804 5807 5811 5813 5814 5816 5818 5820 5821 5822 5823 5824 5825 5826 5828 5830 5831 5832 5833 5834 5834 5834 5835 5836 5836 5836 5835 5836 5836 5836 5836 5836 5836 5835 5835 5835 5835 5836 5835 5835 5835 5835 5835 5835 5834 5834
5793 5794 5796 5799 5803 5806 5807 5810 5811 5814 5816 5818 5819 5820 5821 5823 5823 5824 5826 5827 5828 5829 5830 5830 5831 5831 5832 5832 5832 5832 5832 5833 5833 5833 5833 5833 5832 5832 5832 5832 5832 5832 5831 5831 5830 5830 5830 5830 5829
5787 5788 5790 5794 5799 5801 5802 5804 5807 5809 5811 5813 5815 5816 5818 5819 5819 5820 5821 5823 5824 5826 5826 5827 5827 5827 5828 5828 5829 5829 5829 5829 5830 5830 5830 5830 5829 5829 5829 5829 5829 5828 5828 5827 5827 5826 5826 5825 5824
5781 5783 5785 5790 5794 5795 5796 5797 5801 5804 5806 5808 5810 5811 5813 5815 5816 5816 5817 5819 5820 5821 5823 5823 5824 5824 5824 5824 5825 5825 5825 5826 5827 5827 5828 5827 5826 5826 5826 5826 5825 5825 5824 5824 5823 5822 5822 5821 5820
5775 5776 5779 5785 5789 5790 5791 5791 5795 5798 5800 5802 5804 5807 5809 5810 5812 5813 5813 5815 5816 5818 5819 5820 5820 5820 5820 5820 5821 5821 5821 5822 5823 5824 5824 5824 5824 5823 5823 5822 5822 5821 5820 5819 5819 5818 5817 5816 5815
5768 5770 5773 5780 5784 5787 5785 5785 5788 5792 5794 5796 5799 5802 5804 5805 5807 5809 5810 5811 5813 5815 5815 5816 5816 5816 5816 5816 5817 5817 5818 5818 5819 5820 5820 5821 5821 5820 5820 5819 5818 5818 5817 5816 5815 5814 5813 5812 5811
5761 5763 5768 5775 5778 5781 5779 5778 5780 5784 5787 5789 5792 5796 5798 5800 5802 5804 5806 5807 5809 5810 5811 5812 5812 5812 5812 5812 5813 5813 5814 5815 5815 5816 5816 5817 5817 5817 5816 5815 5814 5813 5813 5811 5811 5810 5809 5807 5806
5754 5757 5764 5768 5771 5772 5771 5771 5772 5776 5780 5782 5785 5788 5790 5793 5795 5798 5800 5802 5804 5805 5807 5808 5808 5808 5808 5808 5808 5809 5810 5811 5811 5812 5812 5813 5813 5813 5812 5811 5810 5809 5808 5806 5805 5804 5802 5801 5800
5748 5752 5757 5760 5762 5764 5764 5764 5766 5769 5773 5777 5778 5781 5783 5785 5789 5792 5795 5797 5798 5800 5801 5802 5803 5803 5803 5803 5803 5804 5805 5806 5807 5807 5808 5808 5808 5808 5807 5806 5805 5805 5803 5801 5799 5798 5796 5795 5794
5742 5746 5750 5753 5754 5756 5758 5759 5760 5763 5768 5770 5772 5774 5777 5780 5783 5786 5789 5791 5793 5794 5796 5796 5797 5798 5798 5798 5799 5799 5800 5801 5802 5802 5803 5803 5803 5803 5802 5801 5801 5799 5798 5796 5794 5792 5790 5789 5788
5735 5739 5742 5745 5747 5750 5752 5753 5755 5758 5761 5763 5765 5768 5771 5774 5777 5780 5783 5786 5788 5789 5790 5790 5791 5792 5792 5792 5793 5794 5795 5796 5796 5797 5798 5798 5798 5798 5797 5796 5795 5794 5792 5790 5788 5787 5785 5783 5782
5728 5731 5734 5737 5741 5743 5745 5747 5748 5754 5755 5756 5758 5761 5765 5768 5771 5773 5777 5780 5782 5783 5783 5784 5784 5785 5786 5787 5788 5789 5790 5790 5791 5791 5792 5793 5793 5792 5792 5791 5790 5788 5787 5785 5783 5781 5779 5777 5775
5721 5723 5726 5729 5732 5735 5736 5739 5744 5748 5747 5748 5751 5755 5758 5761 5764 5766 5769 5773 5776 5777 5777 5777 5778 5779 5780 5781 5782 5784 5784 5784 5785 5785 5786 5787 5787 5786 5786 5785 5784 5783 5781 5780 5778 5776 5774 5771 5768
5714 5715 5717 5721 5723 5724 5727 5731 5737 5737 5738 5741 5743 5747 5750 5754 5757 5759 5763 5766 5769 5770 5770 5771 5772 5773 5775 5776 5777 5778 5778 5778 5779 5780 5780 5781 5781 5781 5780 5779 5778 5777 5775 5774 5772 5770 5768 5765 5761
5706 5707 5708 5711 5712 5713 5715 5719 5725 5727 5729 5733 5736 5738 5742 5746 5749 5752 5755 5759 5761 5763 5764 5765 5766 5767 5769 5770 5771 5772 5772 5772 5773 5774 5775 5775 5775 5775 5774 5773 5772 5770 5769 5768 5766 5763 5761 5757 5754
5697 5698 5698 5699 5701 5703 5704 5708 5713 5717 5720 5725 5728 5731 5734 5737 5740 5742 5746 5751 5754 5756 5757 5758 5760 5761 5762 5764 5765 5765 5765 5766 5767 5768 5769 5769 5769 5769 5768 5766 5765 5763 5762 5760 5758 5756 5753 5750 5746
5687 5687 5688 5689 5690 5692 5694 5697 5702 5706 5710 5715 5719 5723 5726 5729 5732 5734 5738 5742 5746 5749 5750 5751 5753 5754 5756 5757 5758 5758 5759 5760 5761 5763 5763 5763 5763 5762 5761 5760 5758 5756 5754 5752 5750 5747 5744 5741 5738
5677 5677 5678 5678 5678 5678 5681 5684 5690 5694 5700 5705 5709 5714 5718 5721 5723 5725 5729 5734 5738 5741 5743 5744 5746 5747 5749 5751 5752 5752 5753 5754 5755 5756 5756 5756 5756 5755 5754 5753 5751 5749 5747 5744 5741 5738 5735 5731 5728
5665 5665 5665 5664 5664 5665 5666 5671 5679 5684 5688 5693 5699 5703 5707 5711 5713 5716 5720 5725 5729 5733 5736 5738 5739 5741 5742 5744 5745 5746 5746 5747 5749 5749 5749 5749 5749 5748 5747 5745 5744 5741 5738 5735 5732 5728 5725 5721 5717
5652 5651 5650 5649 5649 5652 5654 5654 5666 5672 5676 5682 5688 5692 5696 5700 5703 5707 5711 5717 5721 5724 5727 5730 5732 5734 5736 5737 5738 5739 5740 5741 5742 5742 5742 5742 5741 5740 5739 5738 5735 5732 5729 5726 5722 5718 5714 5710 5706
5636 5635 5635 5634 5633 5636 5640 5640 5649 5660 5667 5672 5677 5681 5685 5690 5694 5698 5703 5709 5713 5716 5719 5722 5725 5727 5729 5730 5732 5732 5733 5734 5734 5735 5735 5734 5734 5732 5731 5729 5726 5723 5719 5715 5711 5707 5703 5698 5694
5620 5619 5618 5616 5616 5619 5627 5624 5633 5646 5656 5661 5666 5669 5674 5679 5684 5689 5694 5700 5704 5708 5711 5715 5717 5719 5721 5723 5724 5725 5726 5726 5727 5727 5727 5726 5725 5724 5722 5720 5717 5713 5709 5705 5700 5695 5691 5686 5682
5605 5604 5602 5599 5599 5602 5608 5608 5620 5632 5641 5647 5652 5656 5661 5667 5673 5679 5685 5691 5696 5700 5704 5707 5710 5712 5714 5715 5716 5718 5719 5719 5719 5719 5719 5718 5717 5715 5713 5710 5707 5703 5699 5694 5689 5684 5679 5674 5669
5592 5590 5590 5588 5586 5587 5588 5592 5606 5616 5622 5630 5637 5642 5648 5655 5662 5669 5675 5682 5687 5692 5696 5700 5703 5705 5706 5708 5709 5710 5711 5711 5711 5711 5711 5709 5708 5706 5704 5701 5697 5692 5688 5683 5678 5673 5668 5662 5656
5582 5579 5580 5577 5573 5571 5572 5579 5588 5598 5604 5613 5621 5628 5636 5643 5650 5658 5666 5673 5679 5684 5688 5692 5695 5697 5699 5700 5702 5703 5703 5704 5703 5703 5702 5701 5699 5697 5694 5690 5686 5682 5677 5672 5667 5662 5656 5650 5643
5575 5572 5570 5567 5564 5561 5562 5567 5574 5583 5588 5596 5606 5615 5623 5631 5640 5649 5658 5665 5671 5676 5681 5684 5688 5690 5692 5693 5695 5696 5696 5696 5696 5695 5694 5692 5690 5688 5684 5680 5676 5672 5667 5661 5656 5650 5644 5637 5629
5567 5564 5561 5559 5557 5555 5553 5559 5566 5569 5575 5583 5594 5603 5613 5622 5632 5642 5651 5658 5664 5669 5674 5677 5681 5683 5685 5686 5687 5688 5688 5688 5688 5687 5686 5684 5681 5678 5675 5671 5666 5661 5656 5650 5644 5637 5630 5623 5614
5559 5557 5554 5551 5549 5547 5546 5551 5557 5561 5566 5573 5583 5594 5605 5615 5626 5635 5644 5651 5657 5662 5667 5671 5674 5676 5678 5679 5680 5680 5680 5680 5680 5679 5677 5675 5672 5669 5665 5661 5656 5650 5644 5638 5631 5624 5616 5608 5599